owner,sensor,date,latitude,longitude,sea_surface_height_above_sea_level,qcFlag 
COMPS,ioos:station:USF.COMPS:ARP:1,2010-09-01T00:00:00Z,28.4330,-82.6670,0.057,1111122 
COMPS,ioos:station:USF.COMPS:ARP:1,2010-09-01T00:06:00Z,28.4330,-82.6670,0.053,1111122 
COMPS,ioos:station:USF.COMPS:ARP:1,2010-09-01T00:12:00Z,28.4330,-82.6670,0.043,1111122 
COMPS,ioos:station:USF.COMPS:ARP:1,2010-09-01T00:18:00Z,28.4330,-82.6670,0.034,1111122 
COMPS,ioos:station:USF.COMPS:ARP:1,2010-09-01T00:24:00Z,28.4330,-82.6670,0.027,1111122 
COMPS,ioos:station:USF.COMPS:ARP:1,2010-09-01T00:30:00Z,28.4330,-82.6670,0.016,1111122 
COMPS,ioos:station:USF.COMPS:ARP:1,2010-09-01T00:36:00Z,28.4330,-82.6670,0.007,1111122 
COMPS,ioos:station:USF.COMPS:ARP:1,2010-09-01T00:42:00Z,28.4330,-82.6670,0.001,1111122 
COMPS,ioos:station:USF.COMPS:ARP:1,2010-09-01T00:48:00Z,28.4330,-82.6670,-0.002,1111122 
COMPS,ioos:station:USF.COMPS:ARP:1,2010-09-01T00:54:00Z,28.4330,-82.6670,-0.009,1111122 
COMPS,ioos:station:USF.COMPS:ARP:1,2010-09-01T01:00:00Z,28.4330,-82.6670,-0.014,1111122 
COMPS,ioos:station:USF.COMPS:ARP:1,2010-09-01T01:06:00Z,28.4330,-82.6670,-0.02,1111122 
COMPS,ioos:station:USF.COMPS:ARP:1,2010-09-01T01:12:00Z,28.4330,-82.6670,-0.031,1111122 
COMPS,ioos:station:USF.COMPS:ARP:1,2010-09-01T01:18:00Z,28.4330,-82.6670,-0.039,1111122 
COMPS,ioos:station:USF.COMPS:ARP:1,2010-09-01T01:24:00Z,28.4330,-82.6670,-0.047,1111122 
COMPS,ioos:station:USF.COMPS:ARP:1,2010-09-01T01:30:00Z,28.4330,-82.6670,-0.059,1111122 
COMPS,ioos:station:USF.COMPS:ARP:1,2010-09-01T01:36:00Z,28.4330,-82.6670,-0.069,1111122 
COMPS,ioos:station:USF.COMPS:ARP:1,2010-09-01T01:42:00Z,28.4330,-82.6670,-0.078,1111122 
COMPS,ioos:station:USF.COMPS:ARP:1,2010-09-01T01:48:00Z,28.4330,-82.6670,-0.087,1111122 
COMPS,ioos:station:USF.COMPS:ARP:1,2010-09-01T01:54:00Z,28.4330,-82.6670,-0.096,1111122 
COMPS,ioos:station:USF.COMPS:ARP:1,2010-09-01T15:00:00Z,28.4330,-82.6670,-0.106,1111122 
COMPS,ioos:station:USF.COMPS:ARP:1,2010-09-01T15:06:00Z,28.4330,-82.6670,-0.119,1111122 
COMPS,ioos:station:USF.COMPS:ARP:1,2010-09-01T15:12:00Z,28.4330,-82.6670,-0.13,1111122 
COMPS,ioos:station:USF.COMPS:ARP:1,2010-09-01T15:18:00Z,28.4330,-82.6670,-0.142,1111122 
COMPS,ioos:station:USF.COMPS:ARP:1,2010-09-01T15:24:00Z,28.4330,-82.6670,-0.154,1111122 
COMPS,ioos:station:USF.COMPS:ARP:1,2010-09-01T15:30:00Z,28.4330,-82.6670,-0.166,1111122 
COMPS,ioos:station:USF.COMPS:ARP:1,2010-09-01T15:36:00Z,28.4330,-82.6670,-0.179,1111122 
COMPS,ioos:station:USF.COMPS:ARP:1,2010-09-01T15:42:00Z,28.4330,-82.6670,-0.192,1111122 
COMPS,ioos:station:USF.COMPS:ARP:1,2010-09-01T15:48:00Z,28.4330,-82.6670,-0.201,1111122 
COMPS,ioos:station:USF.COMPS:ARP:1,2010-09-01T15:54:00Z,28.4330,-82.6670,-0.212,1111122 
COMPS,ioos:station:USF.COMPS:ARP:1,2010-09-01T16:00:00Z,28.4330,-82.6670,-0.223,1111122 
COMPS,ioos:station:USF.COMPS:ARP:1,2010-09-01T16:06:00Z,28.4330,-82.6670,-0.235,1111122 
COMPS,ioos:station:USF.COMPS:ARP:1,2010-09-01T16:12:00Z,28.4330,-82.6670,-0.245,1111122 
COMPS,ioos:station:USF.COMPS:ARP:1,2010-09-01T16:18:00Z,28.4330,-82.6670,-0.255,1111122 
COMPS,ioos:station:USF.COMPS:ARP:1,2010-09-01T16:24:00Z,28.4330,-82.6670,-0.268,1111122 
COMPS,ioos:station:USF.COMPS:ARP:1,2010-09-01T16:30:00Z,28.4330,-82.6670,-0.278,1111122 
COMPS,ioos:station:USF.COMPS:ARP:1,2010-09-01T16:36:00Z,28.4330,-82.6670,-0.288,1111122 
COMPS,ioos:station:USF.COMPS:ARP:1,2010-09-01T16:42:00Z,28.4330,-82.6670,-0.298,1111122 
COMPS,ioos:station:USF.COMPS:ARP:1,2010-09-01T16:48:00Z,28.4330,-82.6670,-0.307,1111122 
COMPS,ioos:station:USF.COMPS:ARP:1,2010-09-01T16:54:00Z,28.4330,-82.6670,-0.317,1111122 
COMPS,ioos:station:USF.COMPS:ARP:1,2010-09-01T17:00:00Z,28.4330,-82.6670,-0.324,1111122 
COMPS,ioos:station:USF.COMPS:ARP:1,2010-09-01T17:06:00Z,28.4330,-82.6670,-0.335,1111122 
COMPS,ioos:station:USF.COMPS:ARP:1,2010-09-01T17:12:00Z,28.4330,-82.6670,-0.345,1111122 
COMPS,ioos:station:USF.COMPS:ARP:1,2010-09-01T17:18:00Z,28.4330,-82.6670,-0.351,1111122 
COMPS,ioos:station:USF.COMPS:ARP:1,2010-09-01T17:24:00Z,28.4330,-82.6670,-0.359,1111122 
COMPS,ioos:station:USF.COMPS:ARP:1,2010-09-01T17:30:00Z,28.4330,-82.6670,-0.366,1111122 
COMPS,ioos:station:USF.COMPS:ARP:1,2010-09-01T17:36:00Z,28.4330,-82.6670,-0.373,1111122 
COMPS,ioos:station:USF.COMPS:ARP:1,2010-09-01T17:42:00Z,28.4330,-82.6670,-0.382,1111122 
COMPS,ioos:station:USF.COMPS:ARP:1,2010-09-01T17:48:00Z,28.4330,-82.6670,-0.39,1111122 
COMPS,ioos:station:USF.COMPS:ARP:1,2010-09-01T17:54:00Z,28.4330,-82.6670,-0.4,1111122 
COMPS,ioos:station:USF.COMPS:ARP:1,2010-09-01T18:00:00Z,28.4330,-82.6670,-0.408,1111122 
COMPS,ioos:station:USF.COMPS:ARP:1,2010-09-01T18:06:00Z,28.4330,-82.6670,-0.414,1111122 
COMPS,ioos:station:USF.COMPS:ARP:1,2010-09-01T18:12:00Z,28.4330,-82.6670,-0.418,1111122 
COMPS,ioos:station:USF.COMPS:ARP:1,2010-09-01T18:18:00Z,28.4330,-82.6670,-0.424,1111122 
COMPS,ioos:station:USF.COMPS:ARP:1,2010-09-01T18:24:00Z,28.4330,-82.6670,-0.429,1111122 
COMPS,ioos:station:USF.COMPS:ARP:1,2010-09-01T18:30:00Z,28.4330,-82.6670,-0.434,1111122 
COMPS,ioos:station:USF.COMPS:ARP:1,2010-09-01T18:36:00Z,28.4330,-82.6670,-0.44,1111122 
COMPS,ioos:station:USF.COMPS:ARP:1,2010-09-01T18:42:00Z,28.4330,-82.6670,-0.444,1111122 
COMPS,ioos:station:USF.COMPS:ARP:1,2010-09-01T18:48:00Z,28.4330,-82.6670,-0.447,1111122 
COMPS,ioos:station:USF.COMPS:ARP:1,2010-09-01T18:54:00Z,28.4330,-82.6670,-0.452,1111122 
COMPS,ioos:station:USF.COMPS:ARP:1,2010-09-01T19:00:00Z,28.4330,-82.6670,-0.458,1111122 
COMPS,ioos:station:USF.COMPS:ARP:1,2010-09-01T19:06:00Z,28.4330,-82.6670,-0.46,1111122 
COMPS,ioos:station:USF.COMPS:ARP:1,2010-09-01T19:12:00Z,28.4330,-82.6670,-0.466,1111122 
COMPS,ioos:station:USF.COMPS:ARP:1,2010-09-01T19:18:00Z,28.4330,-82.6670,-0.468,1111122 
COMPS,ioos:station:USF.COMPS:ARP:1,2010-09-01T19:24:00Z,28.4330,-82.6670,-0.469,1111122 
COMPS,ioos:station:USF.COMPS:ARP:1,2010-09-01T19:30:00Z,28.4330,-82.6670,-0.47,1111122 
COMPS,ioos:station:USF.COMPS:ARP:1,2010-09-01T19:36:00Z,28.4330,-82.6670,-0.468,1111122 
COMPS,ioos:station:USF.COMPS:ARP:1,2010-09-01T19:42:00Z,28.4330,-82.6670,-0.466,1111122 
COMPS,ioos:station:USF.COMPS:ARP:1,2010-09-01T19:48:00Z,28.4330,-82.6670,-0.461,1111122 
COMPS,ioos:station:USF.COMPS:ARP:1,2010-09-01T19:54:00Z,28.4330,-82.6670,-0.455,1111122 
COMPS,ioos:station:USF.COMPS:ARP:1,2010-09-01T20:00:00Z,28.4330,-82.6670,-0.449,1111122 
COMPS,ioos:station:USF.COMPS:ARP:1,2010-09-01T20:06:00Z,28.4330,-82.6670,-0.441,1111122 
COMPS,ioos:station:USF.COMPS:ARP:1,2010-09-01T20:12:00Z,28.4330,-82.6670,-0.434,1111122 
COMPS,ioos:station:USF.COMPS:ARP:1,2010-09-01T20:18:00Z,28.4330,-82.6670,-0.428,1111122 
COMPS,ioos:station:USF.COMPS:ARP:1,2010-09-01T20:24:00Z,28.4330,-82.6670,-0.418,1111122 
COMPS,ioos:station:USF.COMPS:ARP:1,2010-09-01T20:30:00Z,28.4330,-82.6670,-0.405,1111122 
COMPS,ioos:station:USF.COMPS:ARP:1,2010-09-01T20:36:00Z,28.4330,-82.6670,-0.396,1111122 
COMPS,ioos:station:USF.COMPS:ARP:1,2010-09-01T20:42:00Z,28.4330,-82.6670,-0.381,1111122 
COMPS,ioos:station:USF.COMPS:ARP:1,2010-09-01T20:48:00Z,28.4330,-82.6670,-0.372,1111122 
COMPS,ioos:station:USF.COMPS:ARP:1,2010-09-01T20:54:00Z,28.4330,-82.6670,-0.36,1111122 
COMPS,ioos:station:USF.COMPS:ARP:1,2010-09-01T21:00:00Z,28.4330,-82.6670,-0.345,1111122 
COMPS,ioos:station:USF.COMPS:ARP:1,2010-09-01T21:06:00Z,28.4330,-82.6670,-0.331,1111122 
COMPS,ioos:station:USF.COMPS:ARP:1,2010-09-01T21:12:00Z,28.4330,-82.6670,-0.316,1111122 
COMPS,ioos:station:USF.COMPS:ARP:1,2010-09-01T21:18:00Z,28.4330,-82.6670,-0.301,1111122 
COMPS,ioos:station:USF.COMPS:ARP:1,2010-09-01T21:24:00Z,28.4330,-82.6670,-0.286,1111122 
COMPS,ioos:station:USF.COMPS:ARP:1,2010-09-01T21:30:00Z,28.4330,-82.6670,-0.27,1111122 
COMPS,ioos:station:USF.COMPS:ARP:1,2010-09-01T21:36:00Z,28.4330,-82.6670,-0.253,1111122 
COMPS,ioos:station:USF.COMPS:ARP:1,2010-09-01T21:42:00Z,28.4330,-82.6670,-0.234,1111122 
COMPS,ioos:station:USF.COMPS:ARP:1,2010-09-01T21:48:00Z,28.4330,-82.6670,-0.217,1111122 
COMPS,ioos:station:USF.COMPS:ARP:1,2010-09-01T21:54:00Z,28.4330,-82.6670,-0.2,1111122 
COMPS,ioos:station:USF.COMPS:ARP:1,2010-09-01T22:00:00Z,28.4330,-82.6670,-0.185,1111122 
COMPS,ioos:station:USF.COMPS:ARP:1,2010-09-01T22:06:00Z,28.4330,-82.6670,-0.168,1111122 
COMPS,ioos:station:USF.COMPS:ARP:1,2010-09-01T22:12:00Z,28.4330,-82.6670,-0.15,1111122 
COMPS,ioos:station:USF.COMPS:ARP:1,2010-09-01T22:18:00Z,28.4330,-82.6670,-0.135,1111122 
COMPS,ioos:station:USF.COMPS:ARP:1,2010-09-01T22:24:00Z,28.4330,-82.6670,-0.119,1111122 
COMPS,ioos:station:USF.COMPS:ARP:1,2010-09-01T22:30:00Z,28.4330,-82.6670,-0.103,1111122 
COMPS,ioos:station:USF.COMPS:ARP:1,2010-09-01T22:36:00Z,28.4330,-82.6670,-0.088,1111122 
COMPS,ioos:station:USF.COMPS:ARP:1,2010-09-01T22:42:00Z,28.4330,-82.6670,-0.073,1111122 
COMPS,ioos:station:USF.COMPS:ARP:1,2010-09-01T22:48:00Z,28.4330,-82.6670,-0.059,1111122 
COMPS,ioos:station:USF.COMPS:ARP:1,2010-09-01T22:54:00Z,28.4330,-82.6670,-0.048,1111122 
COMPS,ioos:station:USF.COMPS:ARP:1,2010-09-01T23:00:00Z,28.4330,-82.6670,-0.036,1111122 
COMPS,ioos:station:USF.COMPS:ARP:1,2010-09-01T23:06:00Z,28.4330,-82.6670,-0.027,1111122 
COMPS,ioos:station:USF.COMPS:ARP:1,2010-09-01T23:12:00Z,28.4330,-82.6670,-0.02,1111122 
COMPS,ioos:station:USF.COMPS:ARP:1,2010-09-01T23:18:00Z,28.4330,-82.6670,-0.015,1111122 
COMPS,ioos:station:USF.COMPS:ARP:1,2010-09-01T23:24:00Z,28.4330,-82.6670,-0.011,1111122 
COMPS,ioos:station:USF.COMPS:ARP:1,2010-09-01T23:30:00Z,28.4330,-82.6670,-0.004,1111122 
COMPS,ioos:station:USF.COMPS:ARP:1,2010-09-01T23:36:00Z,28.4330,-82.6670,-0.001,1111122 
COMPS,ioos:station:USF.COMPS:ARP:1,2010-09-01T23:42:00Z,28.4330,-82.6670,0.002,1111122 
COMPS,ioos:station:USF.COMPS:ARP:1,2010-09-01T23:48:00Z,28.4330,-82.6670,0.005,1111122 
COMPS,ioos:station:USF.COMPS:ARP:1,2010-09-01T23:54:00Z,28.4330,-82.6670,0.004,1111122 
COMPS,ioos:station:USF.COMPS:ARP:1,2010-09-02T00:00:00Z,28.4330,-82.6670,0.01,1111122 
COMPS,ioos:station:USF.COMPS:ARP:1,2010-09-02T00:06:00Z,28.4330,-82.6670,0.014,1111122 
COMPS,ioos:station:USF.COMPS:ARP:1,2010-09-02T00:12:00Z,28.4330,-82.6670,0.015,1111122 
COMPS,ioos:station:USF.COMPS:ARP:1,2010-09-02T00:18:00Z,28.4330,-82.6670,0.015,1111122 
COMPS,ioos:station:USF.COMPS:ARP:1,2010-09-02T00:24:00Z,28.4330,-82.6670,0.02,1111122 
COMPS,ioos:station:USF.COMPS:ARP:1,2010-09-02T00:30:00Z,28.4330,-82.6670,0.019,1111122 
COMPS,ioos:station:USF.COMPS:ARP:1,2010-09-02T00:36:00Z,28.4330,-82.6670,0.021,1111122 
COMPS,ioos:station:USF.COMPS:ARP:1,2010-09-02T00:42:00Z,28.4330,-82.6670,0.029,1111122 
COMPS,ioos:station:USF.COMPS:ARP:1,2010-09-02T00:48:00Z,28.4330,-82.6670,0.029,1111122 
COMPS,ioos:station:USF.COMPS:ARP:1,2010-09-02T00:54:00Z,28.4330,-82.6670,0.031,1111122 
COMPS,ioos:station:USF.COMPS:ARP:1,2010-09-02T01:00:00Z,28.4330,-82.6670,0.031,1111122 
COMPS,ioos:station:USF.COMPS:ARP:1,2010-09-02T01:06:00Z,28.4330,-82.6670,0.032,1111122 
COMPS,ioos:station:USF.COMPS:ARP:1,2010-09-02T01:12:00Z,28.4330,-82.6670,0.029,1111122 
COMPS,ioos:station:USF.COMPS:ARP:1,2010-09-02T01:18:00Z,28.4330,-82.6670,0.031,1111122 
COMPS,ioos:station:USF.COMPS:ARP:1,2010-09-02T01:24:00Z,28.4330,-82.6670,0.032,1111122 
COMPS,ioos:station:USF.COMPS:ARP:1,2010-09-02T01:30:00Z,28.4330,-82.6670,0.022,1111122 
COMPS,ioos:station:USF.COMPS:ARP:1,2010-09-02T01:36:00Z,28.4330,-82.6670,0.021,1111122 
COMPS,ioos:station:USF.COMPS:ARP:1,2010-09-02T01:42:00Z,28.4330,-82.6670,0.021,1111122 
COMPS,ioos:station:USF.COMPS:ARP:1,2010-09-02T01:48:00Z,28.4330,-82.6670,0.016,1111122 
COMPS,ioos:station:USF.COMPS:ARP:1,2010-09-02T01:54:00Z,28.4330,-82.6670,0.018,1111122 
COMPS,ioos:station:USF.COMPS:ARP:1,2010-09-02T02:00:00Z,28.4330,-82.6670,0.017,1111122 
COMPS,ioos:station:USF.COMPS:ARP:1,2010-09-02T02:06:00Z,28.4330,-82.6670,0.016,1111122 
COMPS,ioos:station:USF.COMPS:ARP:1,2010-09-02T02:12:00Z,28.4330,-82.6670,0.014,1111122 
COMPS,ioos:station:USF.COMPS:ARP:1,2010-09-02T02:18:00Z,28.4330,-82.6670,0.012,1111122 
COMPS,ioos:station:USF.COMPS:ARP:1,2010-09-02T02:24:00Z,28.4330,-82.6670,0.009,1111122 
COMPS,ioos:station:USF.COMPS:ARP:1,2010-09-02T02:30:00Z,28.4330,-82.6670,0.004,1111122 
COMPS,ioos:station:USF.COMPS:ARP:1,2010-09-02T02:36:00Z,28.4330,-82.6670,0.001,1111122 
COMPS,ioos:station:USF.COMPS:ARP:1,2010-09-02T02:42:00Z,28.4330,-82.6670,-0.009,1111122 
COMPS,ioos:station:USF.COMPS:ARP:1,2010-09-02T02:48:00Z,28.4330,-82.6670,-0.017,1111122 
COMPS,ioos:station:USF.COMPS:ARP:1,2010-09-02T02:54:00Z,28.4330,-82.6670,-0.027,1111122 
COMPS,ioos:station:USF.COMPS:ARP:1,2010-09-02T03:00:00Z,28.4330,-82.6670,-0.037,1111122 
COMPS,ioos:station:USF.COMPS:ARP:1,2010-09-02T03:06:00Z,28.4330,-82.6670,-0.046,1111122 
COMPS,ioos:station:USF.COMPS:ARP:1,2010-09-02T03:12:00Z,28.4330,-82.6670,-0.056,1111122 
COMPS,ioos:station:USF.COMPS:ARP:1,2010-09-02T03:18:00Z,28.4330,-82.6670,-0.06,1111122 
COMPS,ioos:station:USF.COMPS:ARP:1,2010-09-02T03:24:00Z,28.4330,-82.6670,-0.066,1111122 
COMPS,ioos:station:USF.COMPS:ARP:1,2010-09-02T03:30:00Z,28.4330,-82.6670,-0.073,1111122 
COMPS,ioos:station:USF.COMPS:ARP:1,2010-09-02T03:36:00Z,28.4330,-82.6670,-0.077,1111122 
COMPS,ioos:station:USF.COMPS:ARP:1,2010-09-02T03:42:00Z,28.4330,-82.6670,-0.081,1111122 
COMPS,ioos:station:USF.COMPS:ARP:1,2010-09-02T03:48:00Z,28.4330,-82.6670,-0.086,1111122 
COMPS,ioos:station:USF.COMPS:ARP:1,2010-09-02T03:54:00Z,28.4330,-82.6670,-0.092,1111122 
COMPS,ioos:station:USF.COMPS:ARP:1,2010-09-02T04:00:00Z,28.4330,-82.6670,-0.098,1111122 
COMPS,ioos:station:USF.COMPS:ARP:1,2010-09-02T04:06:00Z,28.4330,-82.6670,-0.099,1111122 
COMPS,ioos:station:USF.COMPS:ARP:1,2010-09-02T04:12:00Z,28.4330,-82.6670,-0.106,1111122 
COMPS,ioos:station:USF.COMPS:ARP:1,2010-09-02T04:18:00Z,28.4330,-82.6670,-0.111,1111122 
COMPS,ioos:station:USF.COMPS:ARP:1,2010-09-02T04:24:00Z,28.4330,-82.6670,-0.113,1111122 
COMPS,ioos:station:USF.COMPS:ARP:1,2010-09-02T04:30:00Z,28.4330,-82.6670,-0.113,1111122 
COMPS,ioos:station:USF.COMPS:ARP:1,2010-09-02T04:36:00Z,28.4330,-82.6670,-0.113,1111122 
COMPS,ioos:station:USF.COMPS:ARP:1,2010-09-02T04:42:00Z,28.4330,-82.6670,-0.111,1111122 
COMPS,ioos:station:USF.COMPS:ARP:1,2010-09-02T04:48:00Z,28.4330,-82.6670,-0.111,1111122 
COMPS,ioos:station:USF.COMPS:ARP:1,2010-09-02T04:54:00Z,28.4330,-82.6670,-0.109,1111122 
COMPS,ioos:station:USF.COMPS:ARP:1,2010-09-02T05:00:00Z,28.4330,-82.6670,-0.106,1111122 
COMPS,ioos:station:USF.COMPS:ARP:1,2010-09-02T05:06:00Z,28.4330,-82.6670,-0.101,1111122 
COMPS,ioos:station:USF.COMPS:ARP:1,2010-09-02T05:12:00Z,28.4330,-82.6670,-0.093,1111122 
COMPS,ioos:station:USF.COMPS:ARP:1,2010-09-02T05:18:00Z,28.4330,-82.6670,-0.079,1111122 
COMPS,ioos:station:USF.COMPS:ARP:1,2010-09-02T05:24:00Z,28.4330,-82.6670,-0.067,1111122 
COMPS,ioos:station:USF.COMPS:ARP:1,2010-09-02T05:30:00Z,28.4330,-82.6670,-0.055,1111122 
COMPS,ioos:station:USF.COMPS:ARP:1,2010-09-02T05:36:00Z,28.4330,-82.6670,-0.043,1111122 
COMPS,ioos:station:USF.COMPS:ARP:1,2010-09-02T05:42:00Z,28.4330,-82.6670,-0.032,1111122 
COMPS,ioos:station:USF.COMPS:ARP:1,2010-09-02T05:48:00Z,28.4330,-82.6670,-0.024,1111122 
COMPS,ioos:station:USF.COMPS:ARP:1,2010-09-02T05:54:00Z,28.4330,-82.6670,-0.017,1111122 
COMPS,ioos:station:USF.COMPS:ARP:1,2010-09-02T06:00:00Z,28.4330,-82.6670,-0.01,1111122 
COMPS,ioos:station:USF.COMPS:ARP:1,2010-09-02T06:06:00Z,28.4330,-82.6670,-0.006,1111122 
COMPS,ioos:station:USF.COMPS:ARP:1,2010-09-02T06:12:00Z,28.4330,-82.6670,0.003,1111122 
COMPS,ioos:station:USF.COMPS:ARP:1,2010-09-02T06:18:00Z,28.4330,-82.6670,0.008,1111122 
COMPS,ioos:station:USF.COMPS:ARP:1,2010-09-02T06:24:00Z,28.4330,-82.6670,0.018,1111122 
COMPS,ioos:station:USF.COMPS:ARP:1,2010-09-02T06:30:00Z,28.4330,-82.6670,0.029,1111122 
COMPS,ioos:station:USF.COMPS:ARP:1,2010-09-02T06:36:00Z,28.4330,-82.6670,0.041,1111122 
COMPS,ioos:station:USF.COMPS:ARP:1,2010-09-02T06:42:00Z,28.4330,-82.6670,0.051,1111122 
COMPS,ioos:station:USF.COMPS:ARP:1,2010-09-02T06:48:00Z,28.4330,-82.6670,0.06,1111122 
COMPS,ioos:station:USF.COMPS:ARP:1,2010-09-02T06:54:00Z,28.4330,-82.6670,0.069,1111122 
COMPS,ioos:station:USF.COMPS:ARP:1,2010-09-02T07:00:00Z,28.4330,-82.6670,0.079,1111122 
COMPS,ioos:station:USF.COMPS:ARP:1,2010-09-02T07:06:00Z,28.4330,-82.6670,0.086,1111122 
COMPS,ioos:station:USF.COMPS:ARP:1,2010-09-02T07:12:00Z,28.4330,-82.6670,0.095,1111122 
COMPS,ioos:station:USF.COMPS:ARP:1,2010-09-02T07:18:00Z,28.4330,-82.6670,0.106,1111122 
COMPS,ioos:station:USF.COMPS:ARP:1,2010-09-02T07:24:00Z,28.4330,-82.6670,0.112,1111122 
COMPS,ioos:station:USF.COMPS:ARP:1,2010-09-02T07:30:00Z,28.4330,-82.6670,0.121,1111122 
COMPS,ioos:station:USF.COMPS:ARP:1,2010-09-02T07:36:00Z,28.4330,-82.6670,0.131,1111122 
COMPS,ioos:station:USF.COMPS:ARP:1,2010-09-02T07:42:00Z,28.4330,-82.6670,0.139,1111122 
COMPS,ioos:station:USF.COMPS:ARP:1,2010-09-02T07:48:00Z,28.4330,-82.6670,0.149,1111122 
COMPS,ioos:station:USF.COMPS:ARP:1,2010-09-02T07:54:00Z,28.4330,-82.6670,0.16,1111122 
COMPS,ioos:station:USF.COMPS:ARP:1,2010-09-02T08:00:00Z,28.4330,-82.6670,0.172,1111122 
COMPS,ioos:station:USF.COMPS:ARP:1,2010-09-02T08:06:00Z,28.4330,-82.6670,0.187,1111122 
COMPS,ioos:station:USF.COMPS:ARP:1,2010-09-02T08:12:00Z,28.4330,-82.6670,0.198,1111122 
COMPS,ioos:station:USF.COMPS:ARP:1,2010-09-02T08:18:00Z,28.4330,-82.6670,0.21,1111122 
COMPS,ioos:station:USF.COMPS:ARP:1,2010-09-02T08:24:00Z,28.4330,-82.6670,0.226,1111122 
COMPS,ioos:station:USF.COMPS:ARP:1,2010-09-02T08:30:00Z,28.4330,-82.6670,0.242,1111122 
COMPS,ioos:station:USF.COMPS:ARP:1,2010-09-02T08:36:00Z,28.4330,-82.6670,0.255,1111122 
COMPS,ioos:station:USF.COMPS:ARP:1,2010-09-02T08:42:00Z,28.4330,-82.6670,0.268,1111122 
COMPS,ioos:station:USF.COMPS:ARP:1,2010-09-02T08:48:00Z,28.4330,-82.6670,0.281,1111122 
COMPS,ioos:station:USF.COMPS:ARP:1,2010-09-02T08:54:00Z,28.4330,-82.6670,0.292,1111122 
COMPS,ioos:station:USF.COMPS:ARP:1,2010-09-02T09:00:00Z,28.4330,-82.6670,0.304,1111122 
COMPS,ioos:station:USF.COMPS:ARP:1,2010-09-02T09:06:00Z,28.4330,-82.6670,0.312,1111122 
COMPS,ioos:station:USF.COMPS:ARP:1,2010-09-02T09:12:00Z,28.4330,-82.6670,0.319,1111122 
COMPS,ioos:station:USF.COMPS:ARP:1,2010-09-02T09:18:00Z,28.4330,-82.6670,0.328,1111122 
COMPS,ioos:station:USF.COMPS:ARP:1,2010-09-02T09:24:00Z,28.4330,-82.6670,0.335,1111122 
COMPS,ioos:station:USF.COMPS:ARP:1,2010-09-02T09:30:00Z,28.4330,-82.6670,0.341,1111122 
COMPS,ioos:station:USF.COMPS:ARP:1,2010-09-02T09:36:00Z,28.4330,-82.6670,0.351,1111122 
COMPS,ioos:station:USF.COMPS:ARP:1,2010-09-02T09:42:00Z,28.4330,-82.6670,0.361,1111122 
COMPS,ioos:station:USF.COMPS:ARP:1,2010-09-02T09:48:00Z,28.4330,-82.6670,0.368,1111122 
COMPS,ioos:station:USF.COMPS:ARP:1,2010-09-02T09:54:00Z,28.4330,-82.6670,0.373,1111122 
COMPS,ioos:station:USF.COMPS:ARP:1,2010-09-02T10:00:00Z,28.4330,-82.6670,0.38,1111122 
COMPS,ioos:station:USF.COMPS:ARP:1,2010-09-02T10:06:00Z,28.4330,-82.6670,0.39,1111122 
COMPS,ioos:station:USF.COMPS:ARP:1,2010-09-02T10:12:00Z,28.4330,-82.6670,0.394,1111122 
COMPS,ioos:station:USF.COMPS:ARP:1,2010-09-02T10:18:00Z,28.4330,-82.6670,0.397,1111122 
COMPS,ioos:station:USF.COMPS:ARP:1,2010-09-02T10:24:00Z,28.4330,-82.6670,0.401,1111122 
COMPS,ioos:station:USF.COMPS:ARP:1,2010-09-02T10:30:00Z,28.4330,-82.6670,0.404,1111122 
COMPS,ioos:station:USF.COMPS:ARP:1,2010-09-02T10:36:00Z,28.4330,-82.6670,0.408,1111122 
COMPS,ioos:station:USF.COMPS:ARP:1,2010-09-02T10:42:00Z,28.4330,-82.6670,0.412,1111122 
COMPS,ioos:station:USF.COMPS:ARP:1,2010-09-02T10:48:00Z,28.4330,-82.6670,0.421,1111122 
COMPS,ioos:station:USF.COMPS:ARP:1,2010-09-02T10:54:00Z,28.4330,-82.6670,0.433,1111122 
COMPS,ioos:station:USF.COMPS:ARP:1,2010-09-02T11:00:00Z,28.4330,-82.6670,0.442,1111122 
COMPS,ioos:station:USF.COMPS:ARP:1,2010-09-02T11:06:00Z,28.4330,-82.6670,0.448,1111122 
COMPS,ioos:station:USF.COMPS:ARP:1,2010-09-02T11:12:00Z,28.4330,-82.6670,0.45,1111122 
COMPS,ioos:station:USF.COMPS:ARP:1,2010-09-02T11:18:00Z,28.4330,-82.6670,0.451,1111122 
COMPS,ioos:station:USF.COMPS:ARP:1,2010-09-02T11:24:00Z,28.4330,-82.6670,0.448,1111122 
COMPS,ioos:station:USF.COMPS:ARP:1,2010-09-02T11:30:00Z,28.4330,-82.6670,0.445,1111122 
COMPS,ioos:station:USF.COMPS:ARP:1,2010-09-02T11:36:00Z,28.4330,-82.6670,0.444,1111122 
COMPS,ioos:station:USF.COMPS:ARP:1,2010-09-02T11:42:00Z,28.4330,-82.6670,0.448,1111122 
COMPS,ioos:station:USF.COMPS:ARP:1,2010-09-02T11:48:00Z,28.4330,-82.6670,0.451,1111122 
COMPS,ioos:station:USF.COMPS:ARP:1,2010-09-02T11:54:00Z,28.4330,-82.6670,0.452,1111122 
COMPS,ioos:station:USF.COMPS:ARP:1,2010-09-02T12:00:00Z,28.4330,-82.6670,0.451,1111122 
COMPS,ioos:station:USF.COMPS:ARP:1,2010-09-02T12:06:00Z,28.4330,-82.6670,0.445,1111122 
COMPS,ioos:station:USF.COMPS:ARP:1,2010-09-02T12:12:00Z,28.4330,-82.6670,0.445,1111122 
COMPS,ioos:station:USF.COMPS:ARP:1,2010-09-02T12:18:00Z,28.4330,-82.6670,0.441,1111122 
COMPS,ioos:station:USF.COMPS:ARP:1,2010-09-02T12:24:00Z,28.4330,-82.6670,0.434,1111122 
COMPS,ioos:station:USF.COMPS:ARP:1,2010-09-02T12:30:00Z,28.4330,-82.6670,0.428,1111122 
COMPS,ioos:station:USF.COMPS:ARP:1,2010-09-02T12:36:00Z,28.4330,-82.6670,0.417,1111122 
COMPS,ioos:station:USF.COMPS:ARP:1,2010-09-02T12:42:00Z,28.4330,-82.6670,0.409,1111122 
COMPS,ioos:station:USF.COMPS:ARP:1,2010-09-02T12:48:00Z,28.4330,-82.6670,0.397,1111122 
COMPS,ioos:station:USF.COMPS:ARP:1,2010-09-02T12:54:00Z,28.4330,-82.6670,0.387,1111122 
COMPS,ioos:station:USF.COMPS:ARP:1,2010-09-02T13:00:00Z,28.4330,-82.6670,0.377,1111122 
COMPS,ioos:station:USF.COMPS:ARP:1,2010-09-02T13:06:00Z,28.4330,-82.6670,0.366,1111122 
COMPS,ioos:station:USF.COMPS:ARP:1,2010-09-02T13:12:00Z,28.4330,-82.6670,0.354,1111122 
COMPS,ioos:station:USF.COMPS:ARP:1,2010-09-02T13:18:00Z,28.4330,-82.6670,0.354,1111122 
COMPS,ioos:station:USF.COMPS:ARP:1,2010-09-02T13:24:00Z,28.4330,-82.6670,0.342,1111122 
COMPS,ioos:station:USF.COMPS:ARP:1,2010-09-02T13:30:00Z,28.4330,-82.6670,0.336,1111122 
COMPS,ioos:station:USF.COMPS:ARP:1,2010-09-02T13:36:00Z,28.4330,-82.6670,0.328,1111122 
COMPS,ioos:station:USF.COMPS:ARP:1,2010-09-02T13:42:00Z,28.4330,-82.6670,0.314,1111122 
COMPS,ioos:station:USF.COMPS:ARP:1,2010-09-02T13:48:00Z,28.4330,-82.6670,0.304,1111122 
COMPS,ioos:station:USF.COMPS:ARP:1,2010-09-02T13:54:00Z,28.4330,-82.6670,0.296,1111122 
COMPS,ioos:station:USF.COMPS:ARP:1,2010-09-02T14:00:00Z,28.4330,-82.6670,0.281,1111122 
COMPS,ioos:station:USF.COMPS:ARP:1,2010-09-02T14:06:00Z,28.4330,-82.6670,0.264,1111122 
COMPS,ioos:station:USF.COMPS:ARP:1,2010-09-02T14:12:00Z,28.4330,-82.6670,0.249,1111122 
COMPS,ioos:station:USF.COMPS:ARP:1,2010-09-02T14:18:00Z,28.4330,-82.6670,0.237,1111122 
COMPS,ioos:station:USF.COMPS:ARP:1,2010-09-02T14:24:00Z,28.4330,-82.6670,0.219,1111122 
COMPS,ioos:station:USF.COMPS:ARP:1,2010-09-02T14:30:00Z,28.4330,-82.6670,0.207,1111122 
COMPS,ioos:station:USF.COMPS:ARP:1,2010-09-02T14:36:00Z,28.4330,-82.6670,0.191,1111122 
COMPS,ioos:station:USF.COMPS:ARP:1,2010-09-02T14:42:00Z,28.4330,-82.6670,0.174,1111122 
COMPS,ioos:station:USF.COMPS:ARP:1,2010-09-02T14:48:00Z,28.4330,-82.6670,0.162,1111122 
COMPS,ioos:station:USF.COMPS:ARP:1,2010-09-02T14:54:00Z,28.4330,-82.6670,0.149,1111122 
COMPS,ioos:station:USF.COMPS:ARP:1,2010-09-02T15:00:00Z,28.4330,-82.6670,0.134,1111122 
COMPS,ioos:station:USF.COMPS:ARP:1,2010-09-02T15:06:00Z,28.4330,-82.6670,0.121,1111122 
COMPS,ioos:station:USF.COMPS:ARP:1,2010-09-02T15:12:00Z,28.4330,-82.6670,0.108,1111122 
COMPS,ioos:station:USF.COMPS:ARP:1,2010-09-02T15:18:00Z,28.4330,-82.6670,0.092,1111122 
COMPS,ioos:station:USF.COMPS:ARP:1,2010-09-02T15:24:00Z,28.4330,-82.6670,0.08,1111122 
COMPS,ioos:station:USF.COMPS:ARP:1,2010-09-02T15:30:00Z,28.4330,-82.6670,0.067,1111122 
COMPS,ioos:station:USF.COMPS:ARP:1,2010-09-02T15:36:00Z,28.4330,-82.6670,0.054,1111122 
COMPS,ioos:station:USF.COMPS:ARP:1,2010-09-02T15:42:00Z,28.4330,-82.6670,0.042,1111122 
COMPS,ioos:station:USF.COMPS:ARP:1,2010-09-02T15:48:00Z,28.4330,-82.6670,0.031,1111122 
COMPS,ioos:station:USF.COMPS:ARP:1,2010-09-02T15:54:00Z,28.4330,-82.6670,0.02,1111122 